Weather History for KGGE - January, 2014

Change the Weather History Date:

Saturday, January 25, 2014

  Actual Average Record
Temperature  
Mean Temperature 32 °F -  
Max Temperature 53 °F 61 °F 55 °F (2015)
Min Temperature 12 °F 38 °F 12 °F (2014)
Degree Days  
Heating Degree Days 32    
Moisture  
Dew Point 22 °F    
Average Humidity 67    
Maximum Humidity 100    
Minimum Humidity 30    
Precipitation  
Precipitation 0.00 in - - ()
Sea Level Pressure  
Sea Level Pressure 30.03 in    
Wind  
Wind Speed 5 mph (SW)    
Max Wind Speed 23 mph    
Max Gust Speed 31 mph    
Visibility 10 miles    
Events      
Averages and records for this station are not official NWS values.
T = Trace of Precipitation, MM = Missing Value Source: NWS Daily Summary

Daily Weather History Graph

Daily Weather History Graph

Search for Another Location

Airport or City:

Trip Planner

Search our weather history database for the weather conditions in past years. The results will help you decide how hot, cold, wet, or windy it might be!

Date:

Astronomy

Jan. 25, 2014 Rise Set
Actual Time 7:17 AM EST 5:42 PM EST
Civil Twilight 6:50 AM EST 6:08 PM EST
Nautical Twilight 6:20 AM EST 6:38 PM EST
Astronomical Twilight 5:51 AM EST 7:08 PM EST
Moon 1:48 AM EST (1/25) 12:41 PM EST (1/25)
Length of Visible Light 11h 17m
Length of Day
10h 25m
Waning Crescent, 34% of the Moon is Illuminated
Jan 25
Waning Crescent
Jan 30
New
Feb 6
First Quarter
Feb 14
Full
Feb 22
Last Quarter

Hourly Weather History & Observations

Time (EST) Temp. Windchill Dew Point Humidity Pressure Visibility Wind Dir Wind Speed Gust Speed Precip Events Conditions
12:15 AM 14.0 °F - 12.2 °F 93% 30.35 in 10.0 mi Calm Calm - N/A   Clear
12:35 AM 15.8 °F - 12.2 °F 86% 30.34 in 10.0 mi Calm Calm - N/A   Clear
12:55 AM 15.8 °F - 12.2 °F 86% 30.33 in 10.0 mi Calm Calm - N/A   Clear
1:15 AM 14.0 °F - 12.2 °F 93% 30.32 in 10.0 mi Calm Calm - N/A   Clear
1:35 AM 14.0 °F - 12.2 °F 93% 30.31 in 10.0 mi Calm Calm - N/A   Clear
1:55 AM 14.0 °F - 14.0 °F 100% 30.31 in 10.0 mi Calm Calm - N/A   Clear
2:15 AM 14.0 °F - 12.2 °F 93% 30.30 in 10.0 mi Calm Calm - N/A   Clear
2:35 AM 14.0 °F - 14.0 °F 100% 30.29 in 10.0 mi Calm Calm - N/A   Clear
2:55 AM 14.0 °F - 12.2 °F 93% 30.28 in 10.0 mi Calm Calm - N/A   Clear
3:15 AM 14.0 °F - 12.2 °F 93% 30.26 in 10.0 mi Calm Calm - N/A   Clear
3:35 AM 14.0 °F - 12.2 °F 93% 30.25 in 10.0 mi Calm Calm - N/A   Clear
3:55 AM 12.2 °F - 12.2 °F 100% 30.24 in 10.0 mi Calm Calm - N/A   Clear
4:15 AM 12.2 °F - 12.2 °F 100% 30.24 in 10.0 mi Calm Calm - N/A   Clear
4:35 AM 12.2 °F - 10.4 °F 92% 30.22 in 10.0 mi Calm Calm - N/A   Clear
4:55 AM 12.2 °F - 10.4 °F 92% 30.21 in 10.0 mi Calm Calm - N/A   Clear
5:15 AM 14.0 °F - 12.2 °F 93% 30.20 in 10.0 mi Calm Calm - N/A   Clear
5:35 AM 12.2 °F - 10.4 °F 92% 30.19 in 10.0 mi Calm Calm - N/A   Clear
5:55 AM 14.0 °F - 12.2 °F 93% 30.19 in 10.0 mi Calm Calm - N/A   Clear
6:15 AM 14.0 °F - 12.2 °F 93% 30.18 in 10.0 mi Calm Calm - N/A   Clear
6:35 AM 17.6 °F - 15.8 °F 93% 30.19 in 10.0 mi Calm Calm - N/A   Mostly Cloudy
6:55 AM 21.2 °F - 17.6 °F 86% 30.18 in 10.0 mi Calm Calm - N/A   Overcast
7:15 AM 23.0 °F 18.4 °F 19.4 °F 86% 30.16 in 10.0 mi SSW 3.5 mph - N/A   Overcast
7:35 AM 21.2 °F 16.4 °F 17.6 °F 86% 30.15 in 10.0 mi SW 3.5 mph - N/A   Scattered Clouds
7:55 AM 23.0 °F 18.4 °F 19.4 °F 86% 30.14 in 10.0 mi SW 3.5 mph - N/A   Clear
8:15 AM 26.6 °F 22.6 °F 21.2 °F 80% 30.14 in 10.0 mi SW 3.5 mph - N/A   Clear
8:35 AM 30.2 °F 26.7 °F 23.0 °F 75% 30.14 in 10.0 mi SW 3.5 mph - N/A   Clear
8:55 AM 32.0 °F 24.8 °F 26.6 °F 80% 30.14 in 10.0 mi WSW 8.1 mph - N/A   Clear
9:15 AM 33.8 °F 27.0 °F 26.6 °F 75% 30.13 in 10.0 mi WSW 8.1 mph - N/A   Clear
9:35 AM 35.6 °F 28.0 °F 26.6 °F 70% 30.11 in 10.0 mi SW 10.4 mph 16.1 mph N/A   Clear
9:55 AM 37.4 °F 27.5 °F 26.6 °F 65% 30.10 in 10.0 mi SW 18.4 mph 21.9 mph N/A   Clear
10:15 AM 41.0 °F 33.1 °F 24.8 °F 53% 30.09 in 10.0 mi WSW 15.0 mph 26.5 mph N/A   Clear
10:35 AM 42.8 °F 35.4 °F 21.2 °F 42% 30.08 in 10.0 mi WSW 15.0 mph 21.9 mph N/A   Clear
10:55 AM 44.6 °F 37.2 °F 21.2 °F 39% 30.06 in 10.0 mi SW 17.3 mph 24.2 mph N/A   Clear
11:15 AM 44.6 °F 37.2 °F 21.2 °F 39% 30.03 in 10.0 mi WSW 17.3 mph 23.0 mph N/A   Clear
11:35 AM 46.4 °F 39.2 °F 21.2 °F 37% 30.00 in 10.0 mi SSW 18.4 mph 27.6 mph N/A   Clear
11:55 AM 48.2 °F - 23.0 °F 37% 29.98 in 10.0 mi WSW 16.1 mph 20.7 mph N/A   Clear
12:15 PM 48.2 °F - 21.2 °F 34% 29.95 in 10.0 mi SW 17.3 mph 25.3 mph N/A   Clear
12:35 PM 50.0 °F - 23.0 °F 35% 29.92 in 10.0 mi SSW 20.7 mph 27.6 mph N/A   Clear
12:55 PM 50.0 °F - 23.0 °F 35% 29.90 in 10.0 mi SW 18.4 mph 25.3 mph N/A   Clear
1:15 PM 51.8 °F - 23.0 °F 33% 29.88 in 10.0 mi SW 20.7 mph 25.3 mph N/A   Clear
1:35 PM 51.8 °F - 23.0 °F 33% 29.87 in 10.0 mi SW 20.7 mph 25.3 mph N/A   Clear
1:55 PM 51.8 °F - 23.0 °F 33% 29.85 in 10.0 mi SW 18.4 mph 24.2 mph N/A   Mostly Cloudy
2:15 PM 53.6 °F - 23.0 °F 30% 29.85 in 10.0 mi WSW 19.6 mph 26.5 mph N/A   Overcast
2:35 PM 53.6 °F - 23.0 °F 30% 29.83 in 10.0 mi SW 16.1 mph 20.7 mph N/A   Overcast
2:55 PM 53.6 °F - 23.0 °F 30% 29.82 in 10.0 mi SW 23.0 mph 29.9 mph N/A   Scattered Clouds
3:15 PM 53.6 °F - 23.0 °F 30% 29.81 in 10.0 mi SW 19.6 mph 31.1 mph N/A   Clear
3:35 PM 53.6 °F - 23.0 °F 30% 29.80 in 10.0 mi SW 18.4 mph 28.8 mph N/A   Clear
3:55 PM 53.6 °F - 23.0 °F 30% 29.80 in 10.0 mi SW 19.6 mph 28.8 mph N/A   Clear
4:15 PM 53.6 °F - 23.0 °F 30% 29.79 in 10.0 mi SW 20.7 mph 29.9 mph N/A   Scattered Clouds
4:35 PM 51.8 °F - 24.8 °F 35% 29.79 in 10.0 mi SW 17.3 mph 25.3 mph N/A   Mostly Cloudy
4:55 PM 51.8 °F - 26.6 °F 38% 29.80 in 10.0 mi WSW 15.0 mph - N/A   Overcast
5:15 PM 51.8 °F - 26.6 °F 38% 29.80 in 10.0 mi WSW 15.0 mph 23.0 mph N/A   Overcast
5:35 PM 51.8 °F - 28.4 °F 41% 29.81 in 10.0 mi SW 10.4 mph - N/A   Overcast
5:55 PM 48.2 °F - 32.0 °F 54% 29.81 in 10.0 mi SSW 6.9 mph - N/A   Mostly Cloudy
6:15 PM 44.6 °F 41.4 °F 33.8 °F 66% 29.82 in 10.0 mi SSW 5.8 mph - N/A   Scattered Clouds
6:35 PM 42.8 °F 41.1 °F 32.0 °F 66% 29.84 in 10.0 mi SSW 3.5 mph - N/A   Clear
6:55 PM 42.8 °F 40.1 °F 33.8 °F 70% 29.85 in 10.0 mi SW 4.6 mph - N/A   Clear
7:15 PM 41.0 °F 38.0 °F 33.8 °F 76% 29.85 in 10.0 mi SW 4.6 mph - N/A   Scattered Clouds
7:35 PM 39.2 °F - 33.8 °F 81% 29.86 in 10.0 mi Calm Calm - N/A   Scattered Clouds
7:55 PM 41.0 °F - 33.8 °F 76% 29.87 in 10.0 mi Calm Calm - N/A   Clear
8:15 PM 37.4 °F 34.9 °F 32.0 °F 81% 29.87 in 10.0 mi SW 3.5 mph - N/A   Clear
8:35 PM 35.6 °F 31.7 °F 32.0 °F 87% 29.88 in 10.0 mi SW 4.6 mph - N/A   Clear
8:55 PM 41.0 °F - 32.0 °F 70% 29.89 in 10.0 mi Calm Calm - N/A   Scattered Clouds
9:15 PM 35.6 °F 30.7 °F 32.0 °F 87% 29.90 in 10.0 mi SW 5.8 mph - N/A   Overcast
10:15 PM 37.4 °F 32.1 °F 32.0 °F 81% 29.93 in 10.0 mi WSW 6.9 mph - N/A   Mostly Cloudy
10:35 PM 41.0 °F 35.8 °F 32.0 °F 70% 29.94 in 10.0 mi WSW 8.1 mph - N/A   Scattered Clouds
10:55 PM 42.8 °F 37.5 °F 32.0 °F 66% 29.95 in 10.0 mi WSW 9.2 mph - N/A   Clear
11:15 PM 42.8 °F 36.6 °F 30.2 °F 61% 29.95 in 10.0 mi WSW 11.5 mph - N/A   Clear
11:35 PM 44.6 °F 38.8 °F 28.4 °F 53% 29.95 in 10.0 mi West 11.5 mph - N/A   Clear
11:55 PM 42.8 °F 37.5 °F 26.6 °F 53% 29.95 in 10.0 mi West 9.2 mph - N/A   Clear